Wind_Speed
6 8 13 10 10 14 21 24 22 21 20 32 29 22 17 17 21 28 22 20 21 23 23 25 25 24 25 25 24 25 29 29 32 31 26 27 29 30 33 37 40 44 47 50
9 21 9 8 14 17 19 19 21 21 14 29 24 22 14 18 23 27 28 22 24 23 23 24 28 28 29 30 29 31 30 33 31 30 28 30 32 35 38 40 44 47 50 52
19 13 13 18 13 16 24 14 15 19 17 15 17 18 17 20 22 27 30 27 24 25 25 25 26 28 27 31 32 33 31 32 30 29 30 35 38 41 41 43 46 50 52 55
14 16 16 10 15 14 10 12 14 17 20 14 11 15 22 17 17 25 33 34 27 22 23 24 24 24 30 33 32 33 33 33 33 35 34 38 41 41 45 50 52 54 55 59
20 18 12 15 14 12 16 14 10 9 12 14 19 14 16 17 23 25 24 36 31 20 21 23 24 29 31 27 33 37 35 34 38 39 37 40 40 45 49 52 55 57 61 63
22 20 15 11 15 11 13 12 12 12 11 6 16 19 31 30 20 20 22 28 21 15 19 23 26 26 29 34 35 33 32 38 40 39 36 41 46 49 52 56 58 62 63 63
20 20 16 15 14 11 14 6 2 4 4 7 16 12 23 20 13 5 16 18 18 18 20 19 16 22 29 29 29 30 33 34 35 37 42 47 49 52 55 59 63 63 63 63
20 17 20 22 26 19 13 17 6 5 2 8 7 5 4 8 7 8 8 14 15 10 14 17 21 26 26 28 29 28 34 37 40 42 45 47 51 53 58 61 60 62 61 57
15 22 15 8 26 19 19 16 17 22 24 16 15 18 14 5 7 4 4 3 9 13 12 21 25 27 29 30 27 27 34 38 41 42 45 48 51 55 56 58 59 57 52 45
21 23 17 9 20 13 11 18 11 17 2 5 5 14 4 9 5 2 3 6 10 16 18 20 23 24 26 28 25 28 33 36 40 43 46 51 53 53 55 55 52 46 38 36
30 21 19 14 7 15 10 11 18 15 10 6 2 6 8 5 10 12 17 14 19 22 23 23 24 29 34 34 33 39 37 38 41 45 49 50 50 51 51 49 42 36 37 36
6 13 21 24 11 7 6 2 4 4 6 14 13 5 6 9 12 10 3 3 15 20 21 25 31 34 35 36 34 37 38 39 44 47 47 48 48 48 46 38 34 36 34 33
12 5 11 14 16 9 9 4 8 9 13 7 5 6 15 9 5 3 18 18 18 18 23 32 33 33 32 28 32 34 36 41 44 44 45 47 46 42 36 31 32 32 29 29
13 13 6 7 12 11 13 16 15 20 10 22 28 34 25 24 21 14 12 24 25 18 25 29 34 34 30 28 27 32 38 41 41 44 45 43 38 32 29 29 28 28 26 26
14 21 23 22 19 18 18 15 13 16 16 22 27 33 35 32 34 19 25 10 16 21 24 29 29 28 26 25 30 35 38 39 42 43 40 34 29 26 27 27 24 22 23 23
11 13 16 25 26 22 20 23 23 17 23 21 19 27 24 20 23 22 21 23 30 30 23 24 21 21 22 28 31 34 36 40 41 37 32 27 25 25 24 22 21 19 20 20
9 9 8 10 10 15 21 20 20 22 13 16 21 20 20 28 17 14 26 32 28 27 25 18 16 20 25 28 30 32 36 37 33 30 27 25 23 21 20 20 20 18 17 18
8 9 7 7 8 7 17 19 22 26 25 20 15 19 20 20 23 19 27 26 32 29 16 16 16 22 25 27 30 33 32 29 26 25 23 23 19 18 18 19 19 18 16 15
14 15 11 9 14 20 17 15 16 15 13 13 19 22 24 17 13 19 27 11 30 23 18 15 19 23 24 27 29 29 27 24 21 20 21 20 18 17 17 16 18 17 17 17
27 21 19 11 10 4 5 13 12 13 16 18 21 25 21 13 16 30 32 20 20 17 14 16 19 21 23 26 27 25 21 18 18 18 19 19 16 16 16 16 18 18 18 19
18 26 29 26 21 15 17 11 9 9 11 10 12 14 16 20 23 24 29 16 16 12 12 15 19 19 23 23 22 19 17 16 17 19 18 15 14 15 15 18 18 18 19 18
18 13 19 25 19 15 18 16 10 13 16 16 15 15 18 25 21 19 25 17 9 8 13 16 15 17 19 19 18 16 16 16 17 17 16 15 16 15 15 16 17 18 18 17
16 20 24 17 16 12 12 14 9 15 18 22 22 17 11 14 14 11 20 10 7 10 13 13 13 14 15 16 14 15 15 16 16 16 15 14 16 15 15 16 16 17 17 17
22 21 11 20 20 17 12 12 15 22 18 17 15 14 15 14 12 18 6 2 8 10 10 10 11 12 13 14 11 14 16 16 15 15 15 14 13 14 15 16 16 16 16 16
9 14 24 14 11 8 8 7 12 19 15 17 14 8 11 17 16 14 7 4 7 6 8 9 9 10 11 13 10 12 16 16 15 14 14 14 13 15 15 16 15 15 16 17
12 16 11 23 26 20 13 13 15 16 13 11 12 12 16 15 9 7 2 2 4 4 6 6 8 9 9 11 13 13 12 16 14 14 13 14 13 15 16 16 16 16 16 16
Wind_Direction
247 256 237 228 222 248 263 272 267 276 262 223 217 224 240 229 259 234 241 231 235 237 249 260 268 276 290 291 293 301 305 301 294 302 309 301 312 315 310 312 312 313 315 314
238 240 231 227 251 257 265 276 284 290 301 218 217 222 243 237 257 241 248 236 230 240 241 253 261 268 276 282 290 287 290 306 310 304 303 310 311 310 310 310 312 314 313 310
236 242 266 252 249 280 254 269 290 288 276 203 203 212 230 241 252 256 243 245 236 235 244 248 256 264 275 271 267 273 287 304 308 306 313 314 311 310 309 308 308 308 308 308
247 259 264 260 258 269 286 266 279 278 270 293 271 253 258 272 264 248 254 239 236 232 245 253 258 261 250 250 262 279 289 293 299 304 310 309 306 306 307 308 308 309 309 309
253 253 270 270 233 253 265 277 277 296 286 279 271 296 285 287 282 275 266 246 229 224 237 253 246 242 244 253 268 274 278 292 298 302 308 305 304 304 306 308 310 310 310 310
253 255 264 278 252 247 249 265 264 273 312 314 276 300 294 285 293 285 272 236 215 220 225 233 233 244 246 258 259 263 281 297 297 301 300 301 303 305 307 310 311 311 311 311
248 247 251 263 251 228 239 240 29 322 268 243 280 289 279 278 248 86 157 163 159 189 209 223 228 237 238 243 255 279 292 306 304 303 302 302 304 308 310 311 312 312 313 312
243 255 227 240 234 240 255 221 164 231 241 268 278 265 37 200 273 237 175 182 189 204 218 232 241 243 248 255 263 279 302 305 303 301 300 303 308 311 312 312 313 314 315 316
269 264 254 317 223 216 234 237 233 244 258 283 288 286 235 229 286 276 250 227 213 226 223 241 243 248 257 264 274 296 302 302 299 299 303 308 311 312 313 314 316 318 319 319
240 259 265 282 203 204 250 233 263 236 180 248 273 290 333 254 199 192 246 230 226 234 227 233 241 254 267 277 285 308 305 304 305 307 311 313 314 315 315 317 319 321 323 325
233 231 254 254 252 198 210 245 262 267 245 195 190 262 275 248 219 209 257 244 258 242 239 239 248 259 266 272 276 301 309 308 309 311 313 315 316 316 318 321 323 324 325 324
126 218 234 241 240 266 206 16 353 299 338 335 307 237 95 7 312 245 298 179 231 222 234 250 263 263 280 277 285 302 307 309 312 314 316 317 318 320 321 324 326 329 330 332
222 239 223 238 250 281 224 244 327 325 312 327 332 238 303 326 269 179 242 218 201 224 249 267 284 294 293 284 298 303 310 314 316 317 318 320 322 322 323 325 331 338 338 341
230 226 246 236 246 301 280 294 270 293 298 291 275 293 302 275 288 273 192 193 204 230 257 279 294 297 297 298 303 311 314 317 319 320 322 324 323 323 325 331 339 339 342 354
253 264 259 259 256 260 282 296 247 248 256 237 270 280 267 275 279 275 227 215 248 284 270 277 294 296 295 303 311 317 319 321 322 325 326 326 327 330 334 338 342 342 360 1
243 250 257 258 258 260 282 287 291 257 283 260 282 283 285 284 299 251 229 230 252 255 264 290 288 294 303 310 317 321 323 325 328 328 331 332 336 335 339 344 343 358 2 3
182 196 231 271 283 283 276 263 274 299 258 275 281 286 282 283 291 291 258 209 234 257 275 276 290 297 310 318 323 326 328 330 332 338 340 341 341 347 355 353 353 0 4 359
214 224 224 272 297 272 279 266 267 283 284 264 262 279 278 276 280 203 187 208 257 269 290 286 294 310 320 326 328 331 334 338 345 349 352 354 352 356 1 4 12 14 7 359
249 250 252 247 253 271 290 293 282 289 280 278 278 292 269 280 243 226 218 266 250 267 272 285 308 317 327 330 333 334 343 347 351 355 356 357 356 2 8 14 10 13 12 11
251 235 231 224 248 251 243 285 290 281 281 273 279 277 273 280 255 227 232 223 248 258 271 294 312 323 330 334 337 347 349 352 350 352 358 359 356 10 13 16 18 19 17 13
235 229 227 231 241 251 261 287 294 282 268 272 278 282 274 276 276 217 218 221 232 242 284 310 318 329 335 339 347 352 355 357 353 3 1 356 6 19 14 16 18 19 17 15
230 246 234 229 239 249 244 246 262 264 273 286 281 283 282 279 255 265 241 215 219 278 309 313 324 336 339 344 356 358 1 358 1 5 359 9 16 20 14 13 15 19 17 16
231 220 207 218 237 238 255 251 260 272 290 292 291 295 290 293 319 235 201 207 265 295 306 315 331 343 345 349 3 7 4 3 4 5 7 12 20 19 18 15 17 19 15 14
240 230 243 226 248 243 256 259 273 283 295 314 310 304 301 292 273 280 155 333 307 305 310 328 339 346 351 357 11 15 10 6 7 8 12 10 26 21 20 16 12 15 13 16
214 212 233 193 183 204 238 239 268 281 303 316 313 286 265 283 276 235 186 208 264 310 328 332 344 353 357 7 13 11 7 5 6 12 12 7 20 28 24 20 13 14 15 13
248 247 255 232 228 237 245 271 277 276 289 307 301 280 272 271 273 114 77 251 311 331 325 336 0 353 2 8 15 1 353 1 3 7 12 7 12 28 20 19 15 15 20 14
Height
3170 3172 3170 3172 3174 3174 3174 3175 3175 3174 3173 3170 3172 3175 3177 3180 3179 3179 3179 3180 3181 3182 3183 3183 3183 3184 3185 3186 3187 3186 3185 3184 3182 3182 3180 3177 3175 3172 3169 3165 3160 3155 3150 3144
3170 3168 3167 3171 3172 3172 3172 3171 3170 3169 3168 3167 3169 3172 3175 3176 3173 3174 3174 3175 3176 3178 3180 3179 3179 3179 3179 3180 3181 3180 3181 3180 3179 3177 3175 3172 3169 3166 3162 3158 3153 3148 3142 3136
3167 3164 3168 3170 3170 3170 3169 3169 3168 3168 3166 3169 3169 3170 3170 3171 3172 3170 3169 3171 3172 3173 3175 3175 3175 3175 3177 3176 3175 3174 3176 3176 3175 3173 3170 3166 3162 3158 3155 3151 3147 3142 3135 3127
3163 3163 3165 3166 3167 3167 3166 3167 3168 3167 3166 3167 3168 3165 3165 3167 3166 3167 3166 3165 3167 3170 3172 3172 3172 3173 3172 3171 3171 3171 3171 3170 3168 3166 3164 3160 3157 3152 3148 3142 3137 3131 3124 3116
3161 3161 3162 3163 3163 3166 3166 3167 3166 3165 3163 3161 3163 3163 3164 3164 3161 3161 3160 3159 3162 3165 3167 3168 3169 3167 3167 3168 3169 3167 3166 3165 3162 3160 3158 3154 3150 3145 3139 3133 3126 3118 3111 3102
3157 3157 3160 3160 3160 3162 3164 3164 3163 3164 3164 3162 3162 3165 3160 3160 3160 3155 3154 3154 3160 3163 3163 3164 3164 3163 3164 3163 3161 3162 3162 3161 3159 3156 3152 3148 3142 3136 3130 3123 3114 3106 3097 3089
3154 3152 3154 3157 3158 3159 3161 3161 3163 3166 3164 3164 3163 3164 3159 3159 3158 3156 3152 3156 3156 3157 3158 3159 3160 3159 3157 3157 3157 3159 3160 3157 3154 3151 3145 3139 3133 3127 3119 3111 3102 3093 3084 3075
3151 3150 3150 3150 3152 3156 3157 3158 3161 3166 3165 3160 3160 3159 3158 3156 3155 3156 3157 3155 3156 3154 3153 3153 3154 3153 3155 3156 3157 3158 3156 3153 3148 3143 3138 3131 3124 3117 3109 3100 3091 3082 3072 3063
3146 3144 3146 3144 3145 3152 3153 3154 3159 3158 3159 3158 3157 3159 3157 3154 3154 3155 3157 3154 3153 3151 3150 3152 3151 3152 3152 3152 3155 3154 3151 3146 3141 3136 3129 3123 3116 3109 3099 3090 3080 3071 3063 3055
3144 3144 3143 3142 3143 3148 3151 3153 3156 3154 3156 3157 3154 3155 3153 3153 3153 3157 3158 3156 3152 3154 3152 3151 3151 3151 3150 3150 3150 3149 3145 3140 3133 3127 3120 3114 3106 3097 3089 3080 3071 3063 3055 3049
3138 3140 3143 3143 3144 3145 3148 3149 3150 3151 3152 3153 3156 3153 3153 3153 3152 3151 3152 3156 3153 3150 3149 3150 3151 3149 3148 3148 3145 3142 3138 3132 3126 3119 3113 3105 3097 3089 3080 3071 3063 3056 3050 3043
3133 3135 3138 3139 3142 3145 3145 3146 3147 3147 3150 3150 3151 3152 3151 3153 3154 3150 3152 3147 3150 3147 3146 3146 3146 3146 3145 3144 3141 3135 3130 3125 3119 3112 3104 3097 3088 3079 3071 3065 3058 3052 3044 3038
3131 3135 3134 3137 3140 3142 3141 3144 3147 3149 3150 3149 3154 3150 3148 3148 3152 3151 3147 3142 3143 3142 3144 3141 3139 3140 3141 3140 3135 3129 3124 3118 3111 3104 3097 3088 3079 3072 3066 3060 3054 3046 3040 3035
3130 3131 3134 3136 3138 3141 3140 3141 3143 3148 3150 3150 3148 3141 3145 3143 3148 3152 3150 3137 3136 3139 3138 3137 3135 3135 3135 3132 3128 3123 3117 3111 3104 3097 3088 3081 3073 3067 3061 3055 3049 3044 3038 3032
3128 3128 3131 3132 3133 3133 3135 3138 3138 3137 3140 3139 3140 3133 3136 3136 3140 3142 3142 3139 3140 3138 3137 3135 3135 3134 3131 3127 3122 3116 3110 3104 3097 3089 3082 3075 3069 3063 3057 3052 3048 3043 3036 3032
3122 3125 3127 3127 3128 3129 3131 3132 3134 3135 3136 3133 3131 3131 3135 3132 3131 3133 3138 3138 3137 3136 3132 3135 3133 3130 3126 3122 3117 3111 3104 3097 3090 3083 3077 3071 3065 3060 3054 3050 3046 3041 3036 3033
3122 3122 3125 3124 3125 3126 3126 3129 3131 3130 3130 3128 3125 3128 3130 3127 3124 3119 3116 3132 3133 3129 3131 3133 3129 3127 3123 3117 3111 3105 3098 3091 3085 3079 3073 3068 3063 3058 3053 3050 3045 3039 3036 3033
3119 3121 3123 3123 3125 3124 3121 3123 3125 3125 3125 3122 3122 3121 3119 3119 3120 3119 3119 3126 3128 3127 3128 3127 3125 3122 3117 3112 3106 3099 3093 3088 3082 3077 3072 3067 3062 3058 3054 3050 3044 3039 3036 3033
3117 3119 3120 3120 3122 3120 3118 3118 3117 3119 3120 3120 3120 3120 3116 3114 3115 3114 3121 3123 3123 3127 3125 3122 3120 3116 3111 3107 3102 3095 3090 3085 3081 3078 3072 3067 3063 3059 3054 3049 3045 3040 3036 3032
3112 3114 3117 3117 3117 3117 3116 3113 3113 3114 3116 3116 3115 3115 3113 3114 3115 3114 3116 3117 3120 3123 3121 3120 3116 3111 3107 3103 3097 3092 3089 3085 3081 3077 3072 3067 3064 3059 3054 3050 3046 3040 3036 3031
3108 3109 3109 3111 3112 3111 3112 3110 3108 3112 3114 3112 3112 3110 3111 3109 3108 3108 3111 3114 3119 3119 3119 3116 3111 3107 3104 3100 3096 3092 3089 3085 3081 3076 3072 3068 3064 3059 3055 3050 3046 3041 3037 3033
3101 3105 3105 3109 3109 3108 3105 3107 3109 3108 3104 3108 3110 3109 3109 3105 3105 3104 3110 3112 3115 3114 3113 3112 3108 3104 3101 3098 3094 3092 3088 3085 3081 3076 3073 3068 3064 3059 3056 3052 3047 3042 3039 3035
3098 3099 3099 3102 3103 3102 3101 3103 3104 3101 3103 3103 3103 3105 3104 3103 3100 3101 3102 3109 3111 3111 3111 3109 3105 3102 3100 3098 3094 3091 3088 3084 3081 3077 3073 3069 3064 3060 3056 3053 3049 3044 3040 3036
3090 3093 3096 3098 3097 3096 3100 3101 3100 3098 3100 3100 3099 3100 3100 3099 3101 3101 3097 3106 3108 3108 3107 3105 3102 3102 3099 3096 3093 3091 3088 3084 3081 3077 3073 3070 3065 3061 3057 3054 3050 3046 3042 3038
3085 3087 3094 3093 3094 3097 3096 3097 3098 3097 3097 3097 3098 3100 3099 3099 3098 3098 3099 3104 3106 3105 3103 3103 3102 3100 3098 3095 3092 3090 3088 3085 3081 3078 3074 3071 3067 3062 3058 3055 3051 3048 3044 3039
3082 3082 3088 3087 3089 3090 3094 3095 3095 3096 3097 3096 3094 3095 3094 3096 3096 3097 3101 3101 3102 3102 3102 3102 3100 3100 3097 3095 3092 3090 3088 3085 3082 3078 3075 3072 3068 3063 3059 3056 3052 3048 3044 3040